sat.trackr.live / text

‹ back to catalog

STARLINK-36109

NORAD 66943 · 2025-286U

PAYLOAD ACTIVE UNKNOWN

§ Identity

Operator
Country
US
Launch date
2025-12-07
Launch site
AFWTR
Launch vehicle
Mass (kg)
RCS (m²)

Purposes: comms

External: N2YO · Heavens-Above · Gunter

§ Orbital elements

Epoch: 2026-09-20T21:56:48.184512Z

Period
93.85 min
Inclination
53.1587°
Eccentricity
0.0005344
Mean motion
15.34435883 rev/d
Perigee alt
458.9 km
Apogee alt
466.3 km
Semi-major
6,840.7 km
B*
4.6778e-4
RAAN
167.6022°
Arg perigee
67.6334°
Mean anomaly
292.5235°
Rev number
4,529

§ Raw data

STARLINK-361091 66943U 25286U   26263.91444658  .00015483  00000+0  46778-3 0  99962 66943  53.1587 167.6022 0005344  67.6334 292.5235 15.34435883 45290

JSON: /api/v1/satellites/66943 · /tle

For live sub-satellite position, see the globe view (requires WebGL).

§ Visibility from observer

Set your observer location to see the next 7 days of passes ≥ 10°. The values pass through the URL so the page stays shareable.

No JS? Fill the form by hand. The geolocation button needs JavaScript.